"2009-10-07 00:00:00",1304926,5.473,173.7,5.45,0.842,11.39,104.7132,11.34,12.45,26.62,0,110.3,13.32,12.13,135.7
"2009-10-07 00:00:30",1304927,7.376,185,6.437,1.171,14.68,104.7162,11.35,12.64,26.74,0,110.3,13.32,12.14,147.0
"2009-10-07 00:01:00",1304928,5.554,178.8,4.765,1.1,11.5,104.7126,11.34,12.4,26.5,0,110.3,13.32,12.13,140.8
"2009-10-07 00:01:30",1304929,5.101,172.2,2.163,0.152,10.61,104.7121,11.34,12.42,26.53,0,110.3,13.36,12.13,134.2
"2009-10-07 00:02:00",1304930,6.421,178,7.059,1.281,13.2,104.7133,11.34,12.5,26.62,0,110.3,13.32,12.13,140.0
"2009-10-07 00:02:30",1304931,6.771,180.7,6.705,1.364,14.29,104.7097,11.33,12.61,26.8,0,110.3,13.32,12.12,142.7
"2009-10-07 00:03:00",1304932,6.719,177.7,7.524,1.351,12.27,104.7065,11.32,12.38,26.56,0,110.3,13.32,12.11,139.7
"2009-10-07 00:03:30",1304933,5.728,176.6,2.161,0.152,10.23,104.7012,11.31,12.35,26.55,0,110.3,13.36,12.10,138.6
"2009-10-07 00:04:00",1304934,6.583,186.3,6.498,1.49,12.41,104.7039,11.31,12.49,26.75,0,110.3,13.32,12.11,148.3
"2009-10-07 00:04:30",1304935,5.879,180.8,6.661,0.96,11.51,104.7017,11.31,12.49,26.72,0,110.3,13.32,12.10,142.8
"2009-10-07 00:05:00",1304936,7.32,185,7.332,1.333,13.66,104.7002,11.31,12.38,26.57,0,110.3,13.32,12.10,147.0
"2009-10-07 00:05:30",1304937,6.187,182.5,6.221,1.155,12.35,104.6958,11.29,12.5,26.65,0,110.3,13.33,12.09,144.5
"2009-10-07 00:06:00",1304938,6.362,182.6,5.57,1.25,12.57,104.6982,11.3,12.47,26.55,0,110.3,13.33,12.09,144.6
"2009-10-07 00:06:30",1304939,5.958,180.2,4.227,0.784,10.95,104.6975,11.3,12.37,26.46,0,110.3,13.33,12.09,142.2
"2009-10-07 00:07:00",1304940,6.089,181.3,5.708,0.707,11.32,104.7009,11.31,12.45,26.53,0,110.3,13.33,12.10,143.3
"2009-10-07 00:07:30",1304941,6.837,187.8,5.34,1.53,12.66,104.7049,11.32,12.34,26.43,0,110.3,13.33,12.11,149.8
"2009-10-07 00:08:00",1304942,6.696,186.8,6.482,1.446,12.47,104.7061,11.32,12.47,26.58,0,110.3,13.33,12.11,148.8
"2009-10-07 00:08:30",1304943,6.288,192.1,4.915,1.594,12.89,104.7161,11.35,12.47,26.58,0,110.3,13.33,12.14,154.1
"2009-10-07 00:09:00",1304944,5.089,184.6,1.779,0.623,10.59,104.7203,11.36,12.32,26.45,0,110.3,13.33,12.15,146.6
"2009-10-07 00:09:30",1304945,5.256,184.4,2.798,0.304,10.75,104.7227,11.36,12.32,26.44,0,110.3,13.36,12.15,146.4
"2009-10-07 00:10:00",1304946,7.202,192.2,6.743,1.152,14.22,104.7246,11.37,12.59,26.7,0,110.3,13.33,12.16,154.2
"2009-10-07 00:10:30",1304947,6.607,187,9.65,1.375,13.69,104.726,11.37,12.53,26.63,0,110.3,13.32,12.16,149.0
"2009-10-07 00:11:00",1304948,5.157,181.3,3.921,0.209,10.53,104.7272,11.37,12.34,26.36,0,110.3,13.35,12.17,143.3
"2009-10-07 00:11:30",1304949,5.191,181.4,3.356,0.641,11.02,104.7292,11.38,12.39,26.4,0,110.3,13.32,12.17,143.4
"2009-10-07 00:12:00",1304950,6.869,183.5,8.08,1.35,14.42,104.7277,11.38,12.52,26.58,0,110.3,13.31,12.17,145.5
"2009-10-07 00:12:30",1304951,6.671,180.5,8.61,1.253,14.4,104.7261,11.37,12.54,26.65,0,110.3,13.32,12.16,142.5
"2009-10-07 00:13:00",1304952,4.672,170.5,1.971,0.179,10.79,104.7222,11.36,12.36,26.52,0,110.3,13.35,12.15,132.5
"2009-10-07 00:13:30",1304953,5.155,171.7,3.035,0.226,10.5,104.7112,11.33,12.33,26.51,0,110.3,13.35,12.12,133.7
"2009-10-07 00:14:00",1304954,5.585,172.8,6.358,1.096,11.65,104.7047,11.32,12.33,26.58,0,110.3,13.32,12.11,134.8
"2009-10-07 00:14:30",1304955,6.631,179.7,6.5,1.263,13.67,104.7036,11.31,12.58,26.79,0,110.3,13.32,12.11,141.7
"2009-10-07 00:15:00",1304956,6.686,182,5.989,1.244,13.95,104.7039,11.31,12.48,26.6,0,110.3,13.32,12.11,144.0
"2009-10-07 00:15:30",1304957,5.035,171.9,1.34,0.138,10.49,104.7039,11.31,12.31,26.36,0,110.3,13.35,12.11,133.9
"2009-10-07 00:16:00",1304958,6.187,179.5,7.233,1.328,12.19,104.7039,11.31,12.36,26.37,0,110.3,13.32,12.11,141.5
"2009-10-07 00:16:30",1304959,6.453,179.4,6.292,1.371,13.2,104.7039,11.31,12.59,26.65,0,110.3,13.33,12.11,141.4
"2009-10-07 00:17:00",1304960,6.91,181.3,8.25,1.461,13.36,104.7039,11.31,12.36,26.33,0,110.3,13.33,12.11,143.3
"2009-10-07 00:17:30",1304961,5.403,172.2,1.917,0.204,11.22,104.7019,11.31,12.43,26.41,0,110.3,13.36,12.10,134.2
"2009-10-07 00:18:00",1304962,5.577,170.7,4.02,0.689,11.47,104.6971,11.3,12.41,26.44,0,110.3,13.33,12.09,132.7
"2009-10-07 00:18:30",1304963,7.258,177.8,7.03,1.241,13.84,104.6833,11.26,12.42,26.46,0,110.3,13.33,12.05,139.8
"2009-10-07 00:19:00",1304964,7.336,181.5,7.441,1.382,13.71,104.6706,11.23,12.39,26.47,0,110.3,13.33,12.02,143.5
"2009-10-07 00:19:30",1304965,5.516,173.3,1.028,0.135,10.69,104.67,11.23,12.3,26.42,0,110.3,13.36,12.02,135.3
"2009-10-07 00:20:00",1304966,6.873,180.4,6.89,1.396,12.61,104.67,11.23,12.4,26.49,0,110.3,13.33,12.02,142.4
"2009-10-07 00:20:30",1304967,5.878,175.4,4.803,0.739,11.58,104.67,11.23,12.42,26.53,0,110.3,13.33,12.02,137.4
"2009-10-07 00:21:00",1304968,5.953,173.3,3.984,0.764,11.12,104.67,11.23,12.33,26.51,0,110.3,13.33,12.02,135.3
"2009-10-07 00:21:30",1304969,7.411,180.1,6.811,1.248,13.63,104.6653,11.22,12.31,26.46,0,110.3,13.33,12.01,142.1
"2009-10-07 00:22:00",1304970,7.104,177.3,6.669,1.295,12.97,104.65,11.18,12.34,26.52,0,110.3,13.33,11.97,139.3
"2009-10-07 00:22:30",1304971,6.658,175.6,5.896,1.29,12.68,104.6362,11.14,12.41,26.65,0,110.3,13.33,11.93,137.6
"2009-10-07 00:23:00",1304972,7.543,180.8,6.544,1.336,12.77,104.6362,11.14,12.28,26.47,0,110.3,13.33,11.93,142.8
"2009-10-07 00:23:30",1304973,7.397,182.9,7.846,1.174,13.51,104.6362,11.14,12.45,26.68,0,110.3,13.33,11.93,144.9
"2009-10-07 00:24:00",1304974,6.934,178.6,6.754,0.842,11.44,104.6362,11.14,12.26,26.58,0,110.3,13.33,11.93,140.6
"2009-10-07 00:24:30",1304975,6.018,175,3.946,0.206,10.73,104.6359,11.14,12.17,26.62,0,110.3,13.36,11.93,137.0
"2009-10-07 00:25:00",1304976,7.698,185.9,8.39,1.337,13.42,104.6337,11.13,12.3,26.69,0,110.3,13.33,11.93,147.9
"2009-10-07 00:25:30",1304977,7.538,188.6,6.797,1.291,14.25,104.6246,11.11,12.34,26.67,0,110.3,13.33,11.90,150.6
"2009-10-07 00:26:00",1304978,7.133,194.2,6.581,1.31,14.2,104.6151,11.09,12.39,26.6,0,110.2,13.33,11.88,156.2
"2009-10-07 00:26:30",1304979,7.247,205.6,5.58,1.342,14.62,104.6035,11.06,12.2,26,0,110.2,13.33,11.85,167.6
"2009-10-07 00:27:00",1304980,6.169,193.9,5.742,1.272,12.71,104.6024,11.05,12.21,26.1,0,110.3,13.33,11.85,155.9
"2009-10-07 00:27:30",1304981,6.064,196.6,7.624,1.308,12.72,104.6024,11.05,12.22,26.37,0,110.2,13.33,11.85,158.6
"2009-10-07 00:28:00",1304982,5.255,193.3,2.993,0.268,11.07,104.6024,11.05,12.21,26.39,0,110.2,13.36,11.85,155.3
"2009-10-07 00:28:30",1304983,5.436,191.1,2.448,0.269,10.94,104.6024,11.05,12.1,26.32,0,110.2,13.36,11.85,153.1
"2009-10-07 00:29:00",1304984,5.507,188.4,4.879,0.722,11.44,104.6024,11.05,12.15,26.39,0,110.2,13.33,11.85,150.4
"2009-10-07 00:29:30",1304985,7.895,202.9,4.919,1.129,15.77,104.6024,11.05,12.35,26.51,0,110.2,13.33,11.85,164.9
"2009-10-07 00:30:00",1304986,6.834,203.3,7.961,1.301,14.71,104.6027,11.06,12.23,26.29,0,110.2,13.33,11.85,165.3
"2009-10-07 00:30:30",1304987,5.737,192,3.977,0.734,11.42,104.6035,11.06,12.08,26.26,0,110.2,13.33,11.85,154.0
"2009-10-07 00:31:00",1304988,6.933,201.6,9.03,1.308,13.77,104.6071,11.07,12.26,26.49,0,110.2,13.33,11.86,163.6
"2009-10-07 00:31:30",1304989,6.818,194.6,7.833,1.539,13.73,104.6104,11.08,12.31,26.6,0,110.2,13.33,11.87,156.6
"2009-10-07 00:32:00",1304990,5.764,191.7,4.264,0.761,10.81,104.6107,11.08,12.07,26.46,0,110.2,13.33,11.87,153.7
"2009-10-07 00:32:30",1304991,5.459,181.6,2.413,0.209,10.89,104.6109,11.08,12.06,26.57,0,110.3,13.37,11.87,143.6
"2009-10-07 00:33:00",1304992,6.634,190.6,9.76,1.313,13.85,104.6091,11.07,12.2,26.73,0,110.2,13.34,11.86,152.6
"2009-10-07 00:33:30",1304993,6.867,193,6.632,1.325,14.17,104.5999,11.05,12.25,26.83,0,110.2,13.34,11.84,155.0
"2009-10-07 00:34:00",1304994,7.198,192.9,5.602,1.369,13.94,104.5944,11.03,12.22,26.79,0,110.2,13.34,11.83,154.9
"2009-10-07 00:34:30",1304995,7.158,189.8,5.9,1.321,12.57,104.5995,11.05,12.1,26.62,0,110.2,13.34,11.84,151.8
"2009-10-07 00:35:00",1304996,7.778,193.9,6.615,1.217,14.85,104.6016,11.05,12.3,26.85,0,110.2,13.34,11.84,155.9
"2009-10-07 00:35:30",1304997,5.967,191.3,3.603,0.736,11.5,104.6027,11.06,12.09,26.67,0,110.2,13.34,11.85,153.3
"2009-10-07 00:36:00",1304998,5.875,187.7,3.042,0.22,10.93,104.6036,11.06,12.03,26.55,0,110.2,13.38,11.85,149.7
"2009-10-07 00:36:30",1304999,6.417,195.7,8.34,1.121,13.19,104.6036,11.06,12.18,26.72,0,110.2,13.34,11.85,157.7
"2009-10-07 00:37:00",1305000,5.828,184.4,5.534,0.896,12,104.6039,11.06,12.15,26.72,0,110.2,13.34,11.85,146.4
"2009-10-07 00:37:30",1305001,6.169,187,5.046,0.968,11.78,104.6011,11.05,12.08,26.71,0,110.2,13.34,11.84,149.0
"2009-10-07 00:38:00",1305002,6.755,195.1,7.526,1.391,14.17,104.5932,11.03,12.11,26.68,0,110.2,13.34,11.82,157.1
"2009-10-07 00:38:30",1305003,7.122,194.6,6.848,1.308,14.44,104.591,11.03,12.15,26.74,0,110.2,13.34,11.82,156.6
"2009-10-07 00:39:00",1305004,7.561,191.7,6.374,1.319,14.58,104.5757,10.99,12.22,26.88,0,110.2,13.34,11.78,153.7
"2009-10-07 00:39:30",1305005,6.076,180.3,0.789,0.089,10.62,104.5706,10.97,11.99,26.78,0,110.2,13.38,11.76,142.3
"2009-10-07 00:40:00",1305006,7.34,185.9,7.115,1.339,12.41,104.5701,10.97,12.13,26.88,0,110.2,13.34,11.76,147.9
"2009-10-07 00:40:30",1305007,6.983,187.2,8.36,1.247,12.85,104.5701,10.97,12.09,26.9,0,110.2,13.35,11.76,149.2
"2009-10-07 00:41:00",1305008,6.045,186.3,3.596,0.505,11,104.5701,10.97,11.98,26.7,0,110.2,13.35,11.76,148.3
"2009-10-07 00:41:30",1305009,6.792,190.2,7.914,1.322,12.73,104.5701,10.97,11.98,26.64,0,110.2,13.35,11.76,152.2
"2009-10-07 00:42:00",1305010,6.986,194.2,11.3,1.063,13.96,104.5701,10.97,12.17,27,0,110.2,13.35,11.76,156.2
"2009-10-07 00:42:30",1305011,7.844,193.8,7.239,1.189,15.26,104.5695,10.97,12.19,26.99,0,110.2,13.35,11.76,155.8
"2009-10-07 00:43:00",1305012,6.525,192.4,6.514,1.372,13.09,104.5644,10.96,12.03,26.95,0,110.2,13.35,11.75,154.4
"2009-10-07 00:43:30",1305013,6.411,195.1,5.974,1.28,12.46,104.5529,10.93,12,26.7,0,110.2,13.35,11.72,157.1
"2009-10-07 00:44:00",1305014,6.957,190,3.754,1.51,12.66,104.5405,10.9,12.06,26.8,0,110.2,13.34,11.69,152.0
"2009-10-07 00:44:30",1305015,5.901,188,3.206,0.193,10.86,104.5365,10.89,11.93,26.7,0,110.2,13.38,11.68,150.0
"2009-10-07 00:45:00",1305016,6.212,189.2,3.626,0.203,10.99,104.5362,10.89,11.91,26.74,0,110.2,13.38,11.68,151.2
"2009-10-07 00:45:30",1305017,7.43,192.1,7.758,1.264,13.58,104.5362,10.89,12.1,27.06,0,110.2,13.34,11.68,154.1
"2009-10-07 00:46:00",1305018,7.752,196.7,6.79,1.175,15.49,104.5362,10.89,12.19,27.19,0,110.2,13.34,11.68,158.7
"2009-10-07 00:46:30",1305019,7.992,200.5,6.06,1.298,15.33,104.5362,10.89,12.18,27.05,0,110.2,13.34,11.68,162.5
"2009-10-07 00:47:00",1305020,7.032,194,6.43,1.301,13.26,104.5362,10.89,12.06,26.99,0,110.2,13.34,11.68,156.0
"2009-10-07 00:47:30",1305021,7.025,190.1,7.208,1.308,12.54,104.5362,10.89,12.04,27.21,0,110.2,13.34,11.68,152.1
"2009-10-07 00:48:00",1305022,6.186,181.1,2.478,0.159,10.3,104.5365,10.89,11.89,27.33,0,110.2,13.38,11.68,143.1
"2009-10-07 00:48:30",1305023,6.255,183.8,1.895,0.24,10.48,104.5357,10.88,11.89,27.43,0,110.2,13.38,11.67,145.8
"2009-10-07 00:49:00",1305024,6.273,184.4,1.861,0.167,10.99,104.5306,10.87,11.88,27.42,0,110.2,13.39,11.66,146.4
"2009-10-07 00:49:30",1305025,7.756,193.9,6.236,1.434,14.45,104.5284,10.87,12.12,27.56,0,110.2,13.35,11.66,155.9
"2009-10-07 00:50:00",1305026,8.62,194.7,4.878,0.792,15.98,104.5171,10.84,12.08,27.61,0,110.2,13.35,11.63,156.7
"2009-10-07 00:50:30",1305027,7.726,191.8,7.873,1.239,14.76,104.5117,10.82,12.14,27.78,0,110.2,13.35,11.61,153.8
"2009-10-07 00:51:00",1305028,7.336,188.7,6.699,1.316,12.77,104.5094,10.82,11.92,27.54,0,110.2,13.35,11.61,150.7
"2009-10-07 00:51:30",1305029,6.029,184.1,1.749,0.224,10.32,104.5115,10.82,11.85,27.46,0,110.2,13.39,11.61,146.1
"2009-10-07 00:52:00",1305030,6.259,182.7,1.981,0.193,10.25,104.5153,10.83,11.85,27.51,0,110.2,13.39,11.62,144.7
"2009-10-07 00:52:30",1305031,6.362,181.3,2.485,0.137,10.55,104.5171,10.84,11.84,27.88,0,110.2,13.39,11.63,143.3
"2009-10-07 00:53:00",1305032,7.331,184.7,5.8,1.162,12.59,104.5206,10.85,11.99,28.13,0,110.1,13.36,11.64,146.7
"2009-10-07 00:53:30",1305033,8.57,190.2,5.935,1.21,14.97,104.5216,10.85,11.99,28.21,0,110.1,13.36,11.64,152.2
"2009-10-07 00:54:00",1305034,8.48,189.5,5.643,1.172,14.89,104.5153,10.83,12.1,28.28,0,110.1,13.36,11.62,151.5
"2009-10-07 00:54:30",1305035,8.45,185.3,6.372,1.125,14.53,104.5022,10.8,12.06,28.42,0,110.1,13.36,11.59,147.3
"2009-10-07 00:55:00",1305036,6.71,179.6,3.869,0.623,10.83,104.4992,10.79,11.92,28.29,0,110.1,13.36,11.58,141.6
"2009-10-07 00:55:30",1305037,6.8,177.6,1.668,0.122,9.95,104.5012,10.8,11.78,28.19,0,110.1,13.39,11.59,139.6
"2009-10-07 00:56:00",1305038,6.999,177.4,1.424,0.116,10.25,104.5024,10.8,11.83,28.41,0,110.1,13.39,11.59,139.4
"2009-10-07 00:56:30",1305039,8.16,182.7,6.273,1.301,13.08,104.5033,10.8,11.89,28.47,0,110.1,13.36,11.59,144.7
"2009-10-07 00:57:00",1305040,8.09,182.9,6.186,1.302,13.59,104.4982,10.79,11.97,28.44,0,110.1,13.36,11.58,144.9
"2009-10-07 00:57:30",1305041,8.88,186.3,6.632,1.255,14.65,104.4915,10.77,12.03,28.59,0,110.1,13.36,11.56,148.3
"2009-10-07 00:58:00",1305042,9.21,188,5.456,1.042,15.46,104.4757,10.73,12.04,28.58,0,110.1,13.36,11.52,150.0
"2009-10-07 00:58:30",1305043,8.02,183.2,8.01,1.465,13.12,104.4709,10.72,11.85,28.66,0,110.1,13.36,11.51,145.2
"2009-10-07 00:59:00",1305044,7.024,176.6,1.942,0.173,10.19,104.47,10.72,11.72,28.57,0,110.1,13.39,11.51,138.6
"2009-10-07 00:59:30",1305045,7.61,180.5,6.616,1.244,11.43,104.47,10.72,11.72,28.48,0,110.1,13.36,11.51,142.5
"2009-10-07 01:00:00",1305046,7.848,184.2,6.92,1.316,12.73,104.47,10.72,11.86,28.59,0,110.1,13.36,11.51,146.2
"2009-10-07 01:00:30",1305047,7.461,180.4,3.591,0.791,11.31,104.47,10.72,11.69,28.55,0,110.1,13.36,11.51,142.4
"2009-10-07 01:01:00",1305048,7.808,186,7.088,1.141,12.74,104.47,10.72,11.83,28.73,0,110.2,13.36,11.51,148.0
"2009-10-07 01:01:30",1305049,9.23,195.8,5.545,0.561,16.34,104.47,10.72,12,28.59,0,110.1,13.35,11.51,157.8
"2009-10-07 01:02:00",1305050,9.13,194.3,4.963,1.176,14.94,104.47,10.72,11.91,28.6,0,110.1,13.35,11.51,156.3
"2009-10-07 01:02:30",1305051,7.271,181.7,1.732,0.205,10.45,104.4697,10.72,11.68,28.5,0,110.1,13.39,11.50,143.7
"2009-10-07 01:03:00",1305052,6.916,184.3,3.958,0.43,10.68,104.4664,10.71,11.76,28.73,0,110.1,13.39,11.50,146.3
"2009-10-07 01:03:30",1305053,7.711,193.6,6.487,1.237,12.77,104.4644,10.7,11.74,28.15,0,110.1,13.36,11.49,155.6
"2009-10-07 01:04:00",1305054,7.069,191.8,5.513,0.997,12.74,104.4585,10.69,11.88,27.96,0,110.1,13.36,11.48,153.8
"2009-10-07 01:04:30",1305055,7.59,196.3,5.684,1.35,13.35,104.4511,10.67,11.71,27.59,0,110.1,13.36,11.46,158.3
"2009-10-07 01:05:00",1305056,7.543,202.7,6.512,1.281,14.87,104.4491,10.66,11.89,27.26,0,110.1,13.36,11.45,164.7
"2009-10-07 01:05:30",1305057,7.725,200.7,6.517,1.217,14.48,104.4443,10.65,11.91,27.09,0,110.1,13.36,11.44,162.7
"2009-10-07 01:06:00",1305058,7.232,195.8,7.41,1.279,13.66,104.4429,10.65,11.85,27.26,0,110.1,13.37,11.44,157.8
"2009-10-07 01:06:30",1305059,6.509,189.1,1.717,0.112,10.93,104.4472,10.66,11.69,27.23,0,110.1,13.4,11.45,151.1
"2009-10-07 01:07:00",1305060,7.412,199,5.748,1.331,12.88,104.4449,10.65,11.76,27.29,0,110.1,13.37,11.44,161.0
"2009-10-07 01:07:30",1305061,6.365,203.3,7.676,0.894,12.13,104.4477,10.66,11.8,26.87,0,110.1,13.37,11.45,165.3
"2009-10-07 01:08:00",1305062,6.775,201.1,8.44,1.35,13.23,104.4534,10.67,11.79,26.64,0,110.1,13.37,11.46,163.1
"2009-10-07 01:08:30",1305063,6.489,203.6,8.82,1.149,12.38,104.4582,10.69,11.8,26.5,0,110.1,13.37,11.48,165.6
"2009-10-07 01:09:00",1305064,6.43,211.4,5.956,1.316,12.9,104.4672,10.71,11.83,26.43,0,110.1,13.37,11.50,173.4
"2009-10-07 01:09:30",1305065,7.94,216.1,8.36,1.623,14.26,104.47,10.72,11.87,26,0,110.1,13.37,11.51,178.1
"2009-10-07 01:10:00",1305066,6.774,219.1,7.431,1.42,14.04,104.47,10.72,11.83,25.64,0,110.1,13.37,11.51,181.1
"2009-10-07 01:10:30",1305067,7.23,221.1,7.034,1.438,13.43,104.47,10.72,11.84,25.66,0,110.1,13.37,11.51,183.1
"2009-10-07 01:11:00",1305068,6.336,208.4,8.4,1.184,12.64,104.47,10.72,11.86,25.88,0,110.1,13.37,11.51,170.4
"2009-10-07 01:11:30",1305069,6.475,219.5,10.98,1.054,13.35,104.4714,10.72,11.79,25.7,0,110.1,13.37,11.51,181.5
"2009-10-07 01:12:00",1305070,6.178,209.8,6.274,1.358,13.32,104.4906,10.77,11.88,25.82,0,110.1,13.37,11.56,171.8
"2009-10-07 01:12:30",1305071,5.938,207.6,4.733,1.203,12.65,104.4988,10.79,11.74,25.73,0,110.1,13.37,11.58,169.6
"2009-10-07 01:13:00",1305072,5.762,208.4,11.55,0.992,12.16,104.5042,10.8,11.92,25.82,0,110.1,13.37,11.59,170.4
"2009-10-07 01:13:30",1305073,7.75,211.4,10.27,1.285,13.78,104.5039,10.8,11.85,25.87,0,110.1,13.37,11.59,173.4
"2009-10-07 01:14:00",1305074,7.828,211.4,14.8,1.074,13.83,104.5039,10.8,11.99,26.43,0,110.1,13.37,11.59,173.4
"2009-10-07 01:14:30",1305075,7.502,214.2,8.1,1.395,13.86,104.5048,10.81,11.92,25.93,0,110.1,13.37,11.60,176.2
"2009-10-07 01:15:00",1305076,7.831,210.4,7.816,1.362,13.3,104.5087,10.82,12.04,26.33,0,110.1,13.37,11.61,172.4
"2009-10-07 01:15:30",1305077,8.07,216,4.902,1.688,13.33,104.5285,10.87,11.9,26.09,0,110.1,13.37,11.66,178.0
"2009-10-07 01:16:00",1305078,6.449,206.7,9.06,0.558,11.07,104.5376,10.89,11.83,25.81,0,110.1,13.41,11.68,168.7
"2009-10-07 01:16:30",1305079,7.654,206.8,5.723,1.834,13.53,104.538,10.89,12.02,26.41,0,110.1,13.37,11.68,168.8
"2009-10-07 01:17:00",1305080,8.35,205,7.775,1.427,13.33,104.5407,10.9,11.94,27.08,0,110.1,13.37,11.69,167.0
"2009-10-07 01:17:30",1305081,7.286,209.9,6.968,1.264,13.12,104.5395,10.89,11.99,27.36,0,110,13.37,11.68,171.9
"2009-10-07 01:18:00",1305082,8.21,217.5,8.77,1.385,14.49,104.5416,10.9,12.02,27,0,110.1,13.36,11.69,179.5
"2009-10-07 01:18:30",1305083,7.721,199.8,5.158,1.247,13.37,104.5431,10.9,12.11,27.64,0,110.1,13.36,11.69,161.8
"2009-10-07 01:19:00",1305084,7.549,210.4,7.016,1.087,12.94,104.5451,10.91,11.95,27,0,110.1,13.37,11.70,172.4
"2009-10-07 01:19:30",1305085,6.831,206.9,7.134,0.75,10.93,104.5469,10.91,11.88,26.58,0,110.1,13.36,11.70,168.9
"2009-10-07 01:20:00",1305086,6.544,215.5,10.18,0.699,11.99,104.5487,10.92,12.03,26.31,0,110.1,13.36,11.71,177.5
"2009-10-07 01:20:30",1305087,7.404,237.5,6.712,1.683,13.71,104.551,10.92,11.91,24.84,0,110.1,13.36,11.71,199.5
"2009-10-07 01:21:00",1305088,5.852,233.7,7.005,1.075,12.4,104.5537,10.93,11.89,24.48,0,110.2,13.37,11.72,195.7
"2009-10-07 01:21:30",1305089,7.031,215.2,9.2,1.455,14.34,104.5552,10.93,12.15,25.37,0,110.1,13.37,11.72,177.2
"2009-10-07 01:22:00",1305090,7.72,228.3,6.534,1.301,15.29,104.5555,10.93,12.14,25.54,0,110.1,13.37,11.73,190.3
"2009-10-07 01:22:30",1305091,6.918,223.4,7.093,1.3,13.65,104.5563,10.94,12.03,25.01,0,110.1,13.37,11.73,185.4
"2009-10-07 01:23:00",1305092,5.982,221,6.235,0.31,11.28,104.5575,10.94,11.9,24.62,0,110.1,13.41,11.73,183.0
"2009-10-07 01:23:30",1305093,5.559,220.6,10.78,0.403,11.32,104.559,10.94,11.91,24.45,0,110.1,13.41,11.73,182.6
"2009-10-07 01:24:00",1305094,6.822,217.7,8.92,1.539,13.7,104.5599,10.95,12.08,25.06,0,110.1,13.37,11.74,179.7
"2009-10-07 01:24:30",1305095,5.55,203,4.555,0.378,11.54,104.5643,10.96,11.92,25.17,0,110.1,13.41,11.75,165.0
"2009-10-07 01:25:00",1305096,7.696,218.1,7.666,1.296,14.93,104.5655,10.96,12.08,25.64,0,110.2,13.37,11.75,180.1
"2009-10-07 01:25:30",1305097,7.569,220,6.358,1.167,15.44,104.5677,10.97,12.19,25.36,0,110.1,13.38,11.76,182.0
"2009-10-07 01:26:00",1305098,6.553,223.5,5.654,1.29,14.4,104.5778,10.99,12.16,24.53,0,110.1,13.37,11.78,185.5
"2009-10-07 01:26:30",1305099,6.132,217.6,17.09,1.548,12.77,104.5865,11.01,11.99,24.03,0,110.1,13.37,11.80,179.6
"2009-10-07 01:27:00",1305100,5.69,213.3,6.924,0.533,10.85,104.5987,11.05,11.95,24.89,0,110.1,13.41,11.84,175.3
"2009-10-07 01:27:30",1305101,5.814,223.3,7.611,0.709,11.69,104.6038,11.06,12.08,24.65,0,110.1,13.41,11.85,185.3
"2009-10-07 01:28:00",1305102,6.897,227.7,7.133,2.252,13.62,104.6035,11.06,12.01,24.09,0,110.1,13.38,11.85,189.7
"2009-10-07 01:28:30",1305103,6.864,218,8.14,1.594,12.31,104.6047,11.06,12,24.33,0,110.1,13.38,11.85,180.0
"2009-10-07 01:29:00",1305104,7.883,228.6,9.09,1.399,14.88,104.6056,11.06,12.21,24.37,0,110.1,13.38,11.85,190.6
"2009-10-07 01:29:30",1305105,7.307,228.1,5.285,1.042,16.17,104.6056,11.06,12.28,24.09,0,110.1,13.38,11.85,190.1
"2009-10-07 01:30:00",1305106,6.373,217.6,6.923,1.493,13.96,104.6062,11.06,12.13,24.34,0,110.1,13.38,11.86,179.6
"2009-10-07 01:30:30",1305107,6.482,216.7,5.168,0.683,11.13,104.607,11.07,12,23.95,0,110.1,13.41,11.86,178.7
"2009-10-07 01:31:00",1305108,7.651,218.9,6.419,1.118,11.63,104.6065,11.07,12.01,23.9,0,110.1,13.38,11.86,180.9
"2009-10-07 01:31:30",1305109,7.894,231.7,13.16,1.027,13.3,104.6127,11.08,12.2,23.61,0,110.1,13.38,11.87,193.7
"2009-10-07 01:32:00",1305110,6.82,235.2,10.15,2.074,12.54,104.6296,11.12,12.04,23.13,0,110.1,13.38,11.92,197.2
"2009-10-07 01:32:30",1305111,7.211,219.9,8.83,1.291,14.26,104.6409,11.15,12.13,23.62,0,110.1,13.38,11.94,181.9
"2009-10-07 01:33:00",1305112,8.06,226.8,5.562,1.016,15.91,104.6409,11.15,12.34,24.14,0,110.1,13.37,11.94,188.8
"2009-10-07 01:33:30",1305113,7.537,223.2,6.62,1.469,14.54,104.6406,11.15,12.29,24.45,0,110.1,13.37,11.94,185.2
"2009-10-07 01:34:00",1305114,6.648,211.6,2.415,0.244,11.3,104.6409,11.15,12.12,24.45,0,110.1,13.41,11.94,173.6
"2009-10-07 01:34:30",1305115,6.938,212.5,3.112,0.292,11.1,104.6409,11.15,12.1,24.22,0,110.1,13.41,11.94,174.5
"2009-10-07 01:35:00",1305116,8.7,226.2,11.1,1.386,13.76,104.6446,11.16,12.2,24.14,0,110.1,13.37,11.95,188.2
"2009-10-07 01:35:30",1305117,7.885,215,10.81,1.313,13.54,104.6516,11.18,12.29,24.52,0,110.1,13.37,11.97,177.0
"2009-10-07 01:36:00",1305118,9.11,222.3,7.836,1.368,14.26,104.6601,11.2,12.27,24.37,0,110.1,13.37,11.99,184.3
"2009-10-07 01:36:30",1305119,10.38,243.6,8.29,1.133,16.06,104.6604,11.2,12.36,23.47,0,110.1,13.37,11.99,205.6
"2009-10-07 01:37:00",1305120,9.58,236.5,10.9,1.184,15.51,104.6686,11.22,12.33,23.14,0,110.1,13.37,12.02,198.5
"2009-10-07 01:37:30",1305121,7.363,238.8,10.53,1.252,13.19,104.6748,11.24,12.28,22.55,0,110.1,13.37,12.03,200.8
"2009-10-07 01:38:00",1305122,6.316,221.3,4.575,0.777,11.1,104.6748,11.24,12.15,22.72,0,110.2,13.41,12.03,183.3
"2009-10-07 01:38:30",1305123,7.806,234.9,7.465,1.623,13.6,104.6748,11.24,12.31,23.11,0,110.1,13.37,12.03,196.9
"2009-10-07 01:39:00",1305124,8.64,235.4,4.219,1.643,12.99,104.6748,11.24,12.37,22.6,0,110.1,13.38,12.03,197.4
"2009-10-07 01:39:30",1305125,8.06,244.7,8.94,1.171,12.53,104.6748,11.24,12.31,22.6,0,110.1,13.38,12.03,206.7
"2009-10-07 01:40:00",1305126,8.75,257.6,7.963,1.883,14.89,104.6751,11.24,12.34,22.27,0,110.1,13.38,12.03,219.6
"2009-10-07 01:40:30",1305127,7.868,269.7,10.76,1.368,15.27,104.6799,11.25,12.38,23.56,0,110.2,13.38,12.04,231.7
"2009-10-07 01:41:00",1305128,6.735,246,13.85,1.119,14.24,104.6898,11.28,12.37,22.91,0,110.1,13.38,12.07,208.0
"2009-10-07 01:41:30",1305129,5.284,220.3,5.734,0.464,10.96,104.6982,11.3,12.2,23.29,0,110.1,13.41,12.09,182.3
"2009-10-07 01:42:00",1305130,7.629,225.7,7.069,1.298,12.43,104.7025,11.31,12.36,23.4,0,110.1,13.38,12.10,187.7
"2009-10-07 01:42:30",1305131,6.817,223.9,5.764,1.554,12.26,104.7033,11.31,12.27,23.43,0,110.1,13.38,12.10,185.9
"2009-10-07 01:43:00",1305132,6.718,230.7,8.02,1.347,13.59,104.7033,11.31,12.45,23.45,0,110.1,13.38,12.10,192.7
"2009-10-07 01:43:30",1305133,7.423,237.4,14.01,1.502,13.26,104.7041,11.32,12.27,22.15,0,110.1,13.38,12.11,199.4
"2009-10-07 01:44:00",1305134,6.528,233.7,9.74,1.309,14.7,104.7067,11.32,12.35,22.3,0,110.1,13.38,12.11,195.7
"2009-10-07 01:44:30",1305135,5.599,244.1,11.36,1.371,15,104.7087,11.33,12.5,22.04,0,110.1,13.38,12.12,206.1
"2009-10-07 01:45:00",1305136,6.307,235.5,7.879,2.043,12.93,104.7087,11.33,12.41,21.63,0,110.1,13.38,12.12,197.5
"2009-10-07 01:45:30",1305137,7.054,242.4,4.952,0.621,11.2,104.7087,11.33,12.24,21.99,0,110.1,13.39,12.12,204.4
"2009-10-07 01:46:00",1305138,6.842,245.6,7.785,0.648,12.06,104.7087,11.33,12.38,22.32,0,110.1,13.39,12.12,207.6
"2009-10-07 01:46:30",1305139,6.722,240.4,14.5,1.501,13.12,104.7087,11.33,12.29,22.31,0,110.1,13.38,12.12,202.4
"2009-10-07 01:47:00",1305140,7.242,218.1,11.22,1.643,13.72,104.7087,11.33,12.4,22.7,0,110.1,13.39,12.12,180.1